Time,TemperatureF,DewpointF,PressureIn,WindDirection,WindDirectionDegrees,WindSpeedMPH,WindSpeedGustMPH,Humidity,HourlyPrecipIn,Conditions,Clouds,dailyrainin,SoftwareType,DateUTC
2013-06-16 00:02:00,53.0,44.0,-100.00,NNE,29,0.0,4.0,72,0.00,,,0.00,,2013-06-16 04:02:00,
2013-06-16 00:23:00,53.0,44.0,-100.00,NNE,29,0.0,4.0,72,0.00,,,0.00,,2013-06-16 04:23:00,
2013-06-16 00:34:00,53.0,44.0,-100.00,NNE,29,0.0,4.0,72,0.00,,,0.00,,2013-06-16 04:34:00,
2013-06-16 00:43:00,53.0,44.0,-100.00,NNE,29,0.0,4.0,72,0.00,,,0.00,,2013-06-16 04:43:00,
2013-06-16 00:53:00,53.0,44.0,-100.00,NNE,29,0.0,4.0,72,0.00,,,0.00,,2013-06-16 04:53:00,
2013-06-16 01:22:00,52.0,44.0,-100.00,East,82,0.0,3.0,75,0.00,,,0.00,,2013-06-16 05:22:00,
2013-06-16 01:34:00,52.0,44.0,-100.00,East,82,0.0,3.0,75,0.00,,,0.00,,2013-06-16 05:34:00,
2013-06-16 01:43:00,52.0,44.0,-100.00,East,82,0.0,3.0,75,0.00,,,0.00,,2013-06-16 05:43:00,
2013-06-16 01:52:00,52.0,44.0,-100.00,East,82,0.0,3.0,75,0.00,,,0.00,,2013-06-16 05:52:00,
2013-06-16 02:01:00,52.0,44.0,-100.00,East,82,0.0,3.0,75,0.00,,,0.00,,2013-06-16 06:01:00,
2013-06-16 02:23:00,49.0,45.0,-100.00,ENE,69,0.0,3.0,85,0.00,,,-99.99,,2013-06-16 06:23:00,
2013-06-16 02:33:00,49.0,45.0,-100.00,ENE,69,0.0,3.0,85,0.00,,,-99.99,,2013-06-16 06:33:00,
2013-06-16 02:43:00,49.0,45.0,-100.00,ENE,69,0.0,3.0,85,0.00,,,-99.99,,2013-06-16 06:43:00,
2013-06-16 02:52:00,49.0,45.0,-100.00,ENE,69,0.0,3.0,85,0.00,,,-99.99,,2013-06-16 06:52:00,
2013-06-16 03:01:00,49.0,45.0,-100.00,ENE,69,0.0,3.0,85,0.00,,,-99.99,,2013-06-16 07:01:00,
2013-06-16 03:02:00,49.0,45.0,-100.00,ENE,58,0.0,2.0,87,0.00,,,0.00,,2013-06-16 07:02:00,
2013-06-16 03:23:00,49.0,45.0,-100.00,ENE,58,0.0,2.0,87,0.00,,,0.00,,2013-06-16 07:23:00,
2013-06-16 03:33:00,49.0,45.0,-100.00,ENE,58,0.0,2.0,87,0.00,,,0.00,,2013-06-16 07:33:00,
2013-06-16 03:43:00,49.0,45.0,-100.00,ENE,58,0.0,2.0,87,0.00,,,0.00,,2013-06-16 07:43:00,
2013-06-16 03:53:00,49.0,45.0,-100.00,ENE,58,0.0,2.0,87,0.00,,,0.00,,2013-06-16 07:53:00,
2013-06-16 04:02:00,50.0,45.0,-100.00,NNE,31,0.0,3.0,84,0.00,,,0.00,,2013-06-16 08:02:00,
2013-06-16 04:22:00,50.0,45.0,-100.00,NNE,31,0.0,3.0,84,0.00,,,0.00,,2013-06-16 08:22:00,
2013-06-16 04:34:00,50.0,45.0,-100.00,NNE,31,0.0,3.0,84,0.00,,,0.00,,2013-06-16 08:34:00,
2013-06-16 04:43:00,50.0,45.0,-100.00,NNE,31,0.0,3.0,84,0.00,,,0.00,,2013-06-16 08:43:00,
2013-06-16 04:54:00,50.0,45.0,-100.00,NNE,31,0.0,3.0,84,0.00,,,0.00,,2013-06-16 08:54:00,
2013-06-16 05:02:00,50.0,46.0,-100.00,SSE,148,0.0,2.0,87,0.00,,,0.00,,2013-06-16 09:02:00,
2013-06-16 05:22:00,50.0,46.0,-100.00,SSE,148,0.0,2.0,87,0.00,,,0.00,,2013-06-16 09:22:00,
2013-06-16 05:33:00,50.0,46.0,-100.00,SSE,148,0.0,2.0,87,0.00,,,0.00,,2013-06-16 09:33:00,
2013-06-16 05:43:00,50.0,46.0,-100.00,SSE,148,0.0,2.0,87,0.00,,,0.00,,2013-06-16 09:43:00,
2013-06-16 05:52:00,50.0,46.0,-100.00,SSE,148,0.0,2.0,87,0.00,,,0.00,,2013-06-16 09:52:00,
2013-06-16 06:02:00,51.0,47.0,-100.00,East,92,0.0,2.0,85,0.00,,,0.00,,2013-06-16 10:02:00,
2013-06-16 06:22:00,51.0,47.0,-100.00,East,92,0.0,2.0,85,0.00,,,0.00,,2013-06-16 10:22:00,
2013-06-16 06:33:00,51.0,47.0,-100.00,East,92,0.0,2.0,85,0.00,,,0.00,,2013-06-16 10:33:00,
2013-06-16 06:43:00,51.0,47.0,-100.00,East,92,0.0,2.0,85,0.00,,,0.00,,2013-06-16 10:43:00,
2013-06-16 06:54:00,51.0,47.0,-100.00,East,92,0.0,2.0,85,0.00,,,0.00,,2013-06-16 10:54:00,
2013-06-16 07:02:00,56.0,46.0,-100.00,SE,128,1.0,3.0,70,0.00,,,0.00,,2013-06-16 11:02:00,
2013-06-16 07:22:00,56.0,46.0,-100.00,SE,128,1.0,3.0,70,0.00,,,0.00,,2013-06-16 11:22:00,
2013-06-16 07:34:00,56.0,46.0,-100.00,SE,128,1.0,3.0,70,0.00,,,0.00,,2013-06-16 11:34:00,
2013-06-16 07:43:00,56.0,46.0,-100.00,SE,128,1.0,3.0,70,0.00,,,0.00,,2013-06-16 11:43:00,
2013-06-16 07:53:00,56.0,46.0,-100.00,SE,128,1.0,3.0,70,0.00,,,0.00,,2013-06-16 11:53:00,
2013-06-16 08:33:00,61.0,45.0,-100.00,West,259,1.0,3.0,56,0.00,,,0.00,,2013-06-16 12:33:00,
2013-06-16 08:43:00,61.0,45.0,-100.00,West,259,1.0,3.0,56,0.00,,,0.00,,2013-06-16 12:43:00,
2013-06-16 08:53:00,61.0,45.0,-100.00,West,259,1.0,3.0,56,0.00,,,0.00,,2013-06-16 12:53:00,
2013-06-16 09:01:00,61.0,45.0,-100.00,West,259,1.0,3.0,56,0.00,,,0.00,,2013-06-16 13:01:00,
2013-06-16 09:02:00,63.0,49.0,-100.00,South,175,2.0,5.0,60,0.00,,,0.00,,2013-06-16 13:02:00,
2013-06-16 09:34:00,63.0,49.0,-100.00,South,175,2.0,5.0,60,0.00,,,0.00,,2013-06-16 13:34:00,
2013-06-16 09:43:00,63.0,49.0,-100.00,South,175,2.0,5.0,60,0.00,,,0.00,,2013-06-16 13:43:00,
2013-06-16 09:54:00,63.0,49.0,-100.00,South,175,2.0,5.0,60,0.00,,,0.00,,2013-06-16 13:54:00,
2013-06-16 10:02:00,69.0,51.0,-100.00,SSW,195,5.0,12.0,53,0.00,,,0.00,,2013-06-16 14:02:00,
2013-06-16 10:22:00,69.0,51.0,-100.00,SSW,195,5.0,12.0,53,0.00,,,0.00,,2013-06-16 14:22:00,
2013-06-16 10:34:00,69.0,51.0,-100.00,SSW,195,5.0,12.0,53,0.00,,,0.00,,2013-06-16 14:34:00,
2013-06-16 10:44:00,69.0,51.0,-100.00,SSW,195,5.0,12.0,53,0.00,,,0.00,,2013-06-16 14:44:00,
2013-06-16 10:53:00,69.0,51.0,-100.00,SSW,195,5.0,12.0,53,0.00,,,0.00,,2013-06-16 14:53:00,
2013-06-16 11:02:00,65.0,50.0,-100.00,South,184,4.0,13.0,58,0.00,,,-99.99,,2013-06-16 15:02:00,
2013-06-16 11:34:00,65.0,50.0,-100.00,South,184,4.0,13.0,58,0.00,,,-99.99,,2013-06-16 15:34:00,
2013-06-16 11:43:00,65.0,50.0,-100.00,South,184,4.0,13.0,58,0.00,,,-99.99,,2013-06-16 15:43:00,
2013-06-16 11:53:00,65.0,50.0,-100.00,South,184,4.0,13.0,58,0.00,,,-99.99,,2013-06-16 15:53:00,
2013-06-16 12:02:00,67.0,52.0,-100.00,SSW,195,4.0,10.0,59,0.00,,,0.00,,2013-06-16 16:02:00,
2013-06-16 12:23:00,67.0,52.0,-100.00,SSW,195,4.0,10.0,59,0.00,,,0.00,,2013-06-16 16:23:00,
2013-06-16 12:33:00,67.0,52.0,-100.00,SSW,195,4.0,10.0,59,0.00,,,0.00,,2013-06-16 16:33:00,
2013-06-16 12:43:00,67.0,52.0,-100.00,SSW,195,4.0,10.0,59,0.00,,,0.00,,2013-06-16 16:43:00,
2013-06-16 12:53:00,67.0,52.0,-100.00,SSW,195,4.0,10.0,59,0.00,,,0.00,,2013-06-16 16:53:00,
2013-06-16 13:02:00,68.0,52.0,-100.00,SSW,200,5.0,10.0,56,0.00,,,0.00,,2013-06-16 17:02:00,
2013-06-16 13:34:00,68.0,52.0,-100.00,SSW,200,5.0,10.0,56,0.00,,,0.00,,2013-06-16 17:34:00,
2013-06-16 13:43:00,68.0,52.0,-100.00,SSW,200,5.0,10.0,56,0.00,,,0.00,,2013-06-16 17:43:00,
2013-06-16 13:53:00,68.0,52.0,-100.00,SSW,200,5.0,10.0,56,0.00,,,0.00,,2013-06-16 17:53:00,
2013-06-16 14:22:00,69.0,57.0,-100.00,South,178,4.0,16.0,65,0.00,,,0.00,,2013-06-16 18:22:00,
2013-06-16 14:34:00,69.0,57.0,-100.00,South,178,4.0,16.0,65,0.00,,,0.00,,2013-06-16 18:34:00,
2013-06-16 14:43:00,69.0,57.0,-100.00,South,178,4.0,16.0,65,0.00,,,0.00,,2013-06-16 18:43:00,
2013-06-16 14:52:00,69.0,57.0,-100.00,South,178,4.0,16.0,65,0.00,,,0.00,,2013-06-16 18:52:00,
2013-06-16 15:01:00,69.0,57.0,-100.00,South,178,4.0,16.0,65,0.00,,,0.00,,2013-06-16 19:01:00,
2013-06-16 15:02:00,67.0,55.0,-100.00,SSW,199,6.0,13.0,66,0.00,,,0.00,,2013-06-16 19:02:00,
2013-06-16 15:22:00,67.0,55.0,-100.00,SSW,199,6.0,13.0,66,0.00,,,0.00,,2013-06-16 19:22:00,
2013-06-16 15:34:00,67.0,55.0,-100.00,SSW,199,6.0,13.0,66,0.00,,,0.00,,2013-06-16 19:34:00,
2013-06-16 15:43:00,67.0,55.0,-100.00,SSW,199,6.0,13.0,66,0.00,,,0.00,,2013-06-16 19:43:00,
2013-06-16 15:54:00,67.0,55.0,-100.00,SSW,199,6.0,13.0,66,0.00,,,0.00,,2013-06-16 19:54:00,
2013-06-16 16:02:00,62.0,59.0,-100.00,South,188,1.0,9.0,90,0.02,,,0.02,,2013-06-16 20:02:00,
2013-06-16 16:22:00,62.0,59.0,-100.00,South,188,1.0,9.0,90,0.02,,,0.02,,2013-06-16 20:22:00,
2013-06-16 16:34:00,62.0,59.0,-100.00,South,188,1.0,9.0,90,0.02,,,0.02,,2013-06-16 20:34:00,
2013-06-16 16:43:00,62.0,59.0,-100.00,South,188,1.0,9.0,90,0.02,,,0.02,,2013-06-16 20:43:00,
2013-06-16 16:53:00,62.0,59.0,-100.00,South,188,1.0,9.0,90,0.02,,,0.02,,2013-06-16 20:53:00,
2013-06-16 17:22:00,62.0,59.0,-100.00,SW,216,1.0,5.0,90,0.01,,,0.03,,2013-06-16 21:22:00,
2013-06-16 17:33:00,62.0,59.0,-100.00,SW,216,1.0,5.0,90,0.01,,,0.03,,2013-06-16 21:33:00,
2013-06-16 17:42:00,62.0,59.0,-100.00,SW,216,1.0,5.0,90,0.01,,,0.03,,2013-06-16 21:42:00,
2013-06-16 17:53:00,62.0,59.0,-100.00,SW,216,1.0,5.0,90,0.01,,,0.03,,2013-06-16 21:53:00,
2013-06-16 18:01:00,62.0,59.0,-100.00,SW,216,1.0,5.0,90,0.01,,,0.03,,2013-06-16 22:01:00,
2013-06-16 18:02:00,62.0,58.0,-100.00,SSW,205,2.0,8.0,88,0.00,,,0.03,,2013-06-16 22:02:00,
2013-06-16 18:22:00,62.0,58.0,-100.00,SSW,205,2.0,8.0,88,0.00,,,0.03,,2013-06-16 22:22:00,
2013-06-16 18:32:00,62.0,58.0,-100.00,SSW,205,2.0,8.0,88,0.00,,,0.03,,2013-06-16 22:32:00,
2013-06-16 18:42:00,62.0,58.0,-100.00,SSW,205,2.0,8.0,88,0.00,,,0.03,,2013-06-16 22:42:00,
2013-06-16 18:52:00,62.0,58.0,-100.00,SSW,205,2.0,8.0,88,0.00,,,0.03,,2013-06-16 22:52:00,
2013-06-16 19:02:00,62.0,57.0,-100.00,SSW,206,2.0,5.0,84,0.00,,,0.03,,2013-06-16 23:02:00,
2013-06-16 19:22:00,62.0,57.0,-100.00,SSW,206,2.0,5.0,84,0.00,,,0.03,,2013-06-16 23:22:00,
2013-06-16 19:32:00,62.0,57.0,-100.00,SSW,206,2.0,5.0,84,0.00,,,0.03,,2013-06-16 23:32:00,
2013-06-16 19:42:00,62.0,57.0,-100.00,SSW,206,2.0,5.0,84,0.00,,,0.03,,2013-06-16 23:42:00,
2013-06-16 19:52:00,62.0,57.0,-100.00,SSW,206,2.0,5.0,84,0.00,,,0.03,,2013-06-16 23:52:00,
2013-06-16 20:02:00,61.0,59.0,-100.00,South,189,1.0,5.0,92,0.01,,,0.04,,2013-06-17 00:02:00,
2013-06-16 20:22:00,61.0,59.0,-100.00,South,189,1.0,5.0,92,0.01,,,0.04,,2013-06-17 00:22:00,
2013-06-16 20:32:00,61.0,59.0,-100.00,South,189,1.0,5.0,92,0.01,,,0.04,,2013-06-17 00:32:00,
2013-06-16 20:43:00,61.0,59.0,-100.00,South,189,1.0,5.0,92,0.01,,,0.04,,2013-06-17 00:43:00,
2013-06-16 20:53:00,61.0,59.0,-100.00,South,189,1.0,5.0,92,0.01,,,0.04,,2013-06-17 00:53:00,
2013-06-16 21:02:00,61.0,58.0,-100.00,SSW,197,4.0,10.0,91,0.00,,,0.04,,2013-06-17 01:02:00,
2013-06-16 21:22:00,61.0,58.0,-100.00,SSW,197,4.0,10.0,91,0.00,,,0.04,,2013-06-17 01:22:00,
2013-06-16 21:32:00,61.0,58.0,-100.00,SSW,197,4.0,10.0,91,0.00,,,0.04,,2013-06-17 01:32:00,
2013-06-16 21:43:00,61.0,58.0,-100.00,SSW,197,4.0,10.0,91,0.00,,,0.04,,2013-06-17 01:43:00,
2013-06-16 21:53:00,61.0,58.0,-100.00,SSW,197,4.0,10.0,91,0.00,,,0.04,,2013-06-17 01:53:00,
2013-06-16 22:02:00,60.0,58.0,-100.00,ENE,64,2.0,14.0,93,0.00,,,0.04,,2013-06-17 02:02:00,
2013-06-16 22:22:00,60.0,58.0,-100.00,ENE,64,2.0,14.0,93,0.00,,,0.04,,2013-06-17 02:22:00,
2013-06-16 22:34:00,60.0,58.0,-100.00,ENE,64,2.0,14.0,93,0.00,,,0.04,,2013-06-17 02:34:00,
2013-06-16 22:43:00,60.0,58.0,-100.00,ENE,64,2.0,14.0,93,0.00,,,0.04,,2013-06-17 02:43:00,
2013-06-16 22:53:00,60.0,58.0,-100.00,ENE,64,2.0,14.0,93,0.00,,,0.04,,2013-06-17 02:53:00,
2013-06-16 23:02:00,59.0,58.0,-100.00,NNE,19,1.0,5.0,95,0.00,,,0.04,,2013-06-17 03:02:00,
2013-06-16 23:22:00,59.0,58.0,-100.00,NNE,19,1.0,5.0,95,0.00,,,0.04,,2013-06-17 03:22:00,
2013-06-16 23:33:00,59.0,58.0,-100.00,NNE,19,1.0,5.0,95,0.00,,,0.04,,2013-06-17 03:33:00,
2013-06-16 23:44:00,59.0,58.0,-100.00,NNE,19,1.0,5.0,95,0.00,,,0.04,,2013-06-17 03:44:00,
2013-06-16 23:54:00,59.0,58.0,-100.00,NNE,19,1.0,5.0,95,0.00,,,0.04,,2013-06-17 03:54:00,